timestamp,wind_dir_avg,wind_spd_avg,wind_spd_max_dir,wind_spd_gust,battery_voltage,lat,long
2021-05-10 00:04:01+00:00,218.0,9.6,222.0,10.98,12.73,47.59359,-54.27349
2021-05-10 00:14:01+00:00,216.0,8.93,216.0,10.81,12.57,47.59359,-54.27349
2021-05-10 00:24:01+00:00,218.0,9.63,215.0,11.02,12.57,47.59359,-54.27349
2021-05-10 00:34:01+00:00,217.0,10.03,217.0,11.6,12.57,47.59359,-54.27349
2021-05-10 00:44:01+00:00,217.0,9.81,216.0,10.96,12.57,47.59359,-54.27349
2021-05-10 00:54:01+00:00,222.0,10.39,224.0,12.06,12.57,47.59359,-54.27349
2021-05-10 01:04:01+00:00,222.0,10.38,223.0,11.78,12.57,47.59359,-54.27349
2021-05-10 01:14:01+00:00,217.0,8.77,221.0,10.68,12.57,47.59359,-54.27349
2021-05-10 01:24:01+00:00,221.0,10.63,219.0,12.41,12.57,47.59359,-54.27349
2021-05-10 01:34:01+00:00,221.0,10.01,223.0,11.56,12.57,47.59359,-54.27349
2021-05-10 01:44:01+00:00,226.0,11.67,223.0,13.13,12.57,47.59359,-54.27349
2021-05-10 01:54:01+00:00,220.0,9.85,224.0,11.42,12.57,47.59359,-54.27349
2021-05-10 02:04:01+00:00,222.0,9.94,224.0,10.94,12.57,47.59359,-54.27349
2021-05-10 02:14:01+00:00,228.0,9.91,220.0,11.7,12.49,47.59359,-54.27349
2021-05-10 02:24:01+00:00,226.0,10.81,230.0,12.95,12.49,47.59359,-54.27349
2021-05-10 02:34:01+00:00,226.0,10.59,229.0,11.91,12.49,47.59359,-54.27349
2021-05-10 02:44:01+00:00,223.0,10.63,223.0,12.15,12.49,47.59359,-54.27349
2021-05-10 02:54:01+00:00,219.0,11.67,220.0,13.16,12.49,47.59359,-54.27349
2021-05-10 03:04:01+00:00,228.0,10.44,232.0,13.42,12.49,47.59359,-54.27349
2021-05-10 03:14:01+00:00,227.0,10.51,230.0,12.29,12.49,47.59359,-54.27349
2021-05-10 03:24:01+00:00,226.0,10.35,226.0,12.1,12.49,47.59359,-54.27349
2021-05-10 03:34:01+00:00,227.0,10.26,232.0,12.25,12.49,47.59359,-54.27349
2021-05-10 03:44:01+00:00,225.0,10.3,226.0,13.34,12.49,47.59359,-54.27349
2021-05-10 03:54:01+00:00,229.0,9.91,231.0,11.27,12.49,47.59359,-54.27349
2021-05-10 04:04:01+00:00,229.0,10.49,231.0,12.66,12.49,47.59359,-54.27349
2021-05-10 04:14:00+00:00,225.0,9.57,222.0,11.45,12.49,47.59359,-54.27349
2021-05-10 04:24:00+00:00,227.0,9.37,229.0,11.14,12.49,47.59359,-54.27349
2021-05-10 04:34:00+00:00,231.0,10.68,233.0,12.4,12.49,47.59359,-54.27349
2021-05-10 04:44:00+00:00,230.0,9.75,230.0,11.26,12.49,47.59359,-54.27349
2021-05-10 04:54:00+00:00,231.0,11.03,229.0,13.81,12.49,47.59359,-54.27349
2021-05-10 05:04:00+00:00,228.0,9.36,229.0,11.97,12.49,47.59359,-54.27349
2021-05-10 05:14:00+00:00,230.0,10.69,245.0,13.23,12.49,47.59359,-54.27349
2021-05-10 05:24:00+00:00,231.0,10.2,232.0,12.55,12.49,47.59359,-54.27349
2021-05-10 05:34:00+00:00,230.0,9.17,235.0,12.04,12.49,47.59359,-54.27349
2021-05-10 05:44:00+00:00,240.0,9.72,238.0,11.08,12.49,47.59359,-54.27349
2021-05-10 05:54:00+00:00,239.0,10.07,240.0,12.31,12.49,47.59359,-54.27349
2021-05-10 06:04:00+00:00,239.0,10.94,236.0,11.88,12.49,47.59359,-54.27349
2021-05-10 06:14:01+00:00,238.0,10.25,241.0,12.28,12.41,47.59359,-54.27349
2021-05-10 06:24:01+00:00,242.0,10.04,244.0,11.86,12.41,47.59359,-54.27349
2021-05-10 06:34:01+00:00,241.0,9.96,242.0,11.09,12.41,47.59359,-54.27349
2021-05-10 06:44:01+00:00,235.0,9.8,234.0,11.67,12.41,47.59359,-54.27349
2021-05-10 06:54:01+00:00,236.0,11.04,238.0,13.25,12.41,47.59359,-54.27349
2021-05-10 07:04:01+00:00,237.0,10.77,237.0,12.12,12.41,47.59359,-54.27349
2021-05-10 07:14:01+00:00,236.0,9.77,233.0,10.83,12.41,47.59359,-54.27349
2021-05-10 07:24:01+00:00,237.0,8.19,242.0,10.39,12.41,47.59359,-54.27349
2021-05-10 07:34:01+00:00,246.0,11.12,247.0,12.32,12.41,47.59359,-54.27349
2021-05-10 07:44:01+00:00,248.0,9.73,247.0,11.14,12.41,47.59359,-54.27349
2021-05-10 07:54:01+00:00,247.0,10.02,250.0,11.27,12.41,47.59359,-54.27349
2021-05-10 08:04:01+00:00,243.0,9.24,246.0,10.27,12.41,47.59359,-54.27349
2021-05-10 08:14:00+00:00,253.0,9.01,254.0,10.22,12.33,47.59359,-54.27349
2021-05-10 08:24:00+00:00,254.0,9.55,252.0,10.59,12.33,47.59359,-54.27349
2021-05-10 08:34:00+00:00,254.0,9.09,260.0,10.49,12.33,47.59359,-54.27349
2021-05-10 08:44:00+00:00,255.0,9.68,251.0,11.06,12.33,47.59359,-54.27349
2021-05-10 08:54:00+00:00,251.0,10.03,253.0,11.38,12.33,47.59359,-54.27349
2021-05-10 09:04:00+00:00,250.0,9.42,251.0,11.36,12.33,47.59359,-54.27349
2021-05-10 09:14:00+00:00,257.0,8.25,260.0,9.68,12.41,47.59359,-54.27349
2021-05-10 09:24:00+00:00,262.0,9.29,259.0,10.71,12.41,47.59359,-54.27349
2021-05-10 09:34:00+00:00,265.0,11.17,270.0,13.87,12.41,47.59359,-54.27349
2021-05-10 09:44:00+00:00,267.0,9.58,277.0,11.19,12.41,47.59359,-54.27349
2021-05-10 09:54:00+00:00,266.0,9.53,260.0,11.15,12.41,47.59359,-54.27349
2021-05-10 10:04:00+00:00,270.0,8.77,274.0,11.1,12.41,47.59359,-54.27349
2021-05-10 10:14:00+00:00,267.0,10.11,268.0,12.33,12.81,47.59359,-54.27349
2021-05-10 10:24:00+00:00,270.0,9.64,272.0,11.31,12.81,47.59359,-54.27349
2021-05-10 10:34:00+00:00,261.0,11.54,263.0,13.34,12.81,47.59359,-54.27349
2021-05-10 10:44:00+00:00,271.0,10.68,269.0,12.63,12.81,47.59359,-54.27349
2021-05-10 10:54:00+00:00,270.0,10.37,269.0,12.64,12.81,47.59359,-54.27349
2021-05-10 11:04:00+00:00,267.0,10.65,263.0,13.36,12.81,47.59359,-54.27349
2021-05-10 11:14:01+00:00,274.0,11.14,274.0,12.38,13.68,47.59359,-54.27349
2021-05-10 11:24:01+00:00,272.0,12.93,274.0,15.51,13.68,47.59359,-54.27349
2021-05-10 11:34:01+00:00,277.0,11.66,276.0,13.73,13.68,47.59359,-54.27349
2021-05-10 11:44:01+00:00,270.0,12.63,270.0,15.11,13.68,47.59359,-54.27349
2021-05-10 11:54:01+00:00,274.0,11.94,278.0,14.02,13.68,47.59359,-54.27349
2021-05-10 12:04:01+00:00,276.0,11.21,281.0,13.68,13.68,47.59359,-54.27349
2021-05-10 12:14:01+00:00,272.0,11.67,268.0,13.72,13.68,47.59359,-54.27349
2021-05-10 12:24:01+00:00,277.0,10.62,275.0,12.68,13.68,47.59359,-54.27349
2021-05-10 12:34:01+00:00,276.0,10.93,281.0,14.55,13.68,47.59359,-54.27349
2021-05-10 12:44:01+00:00,275.0,11.05,279.0,13.24,13.68,47.59359,-54.27349
2021-05-10 12:54:01+00:00,274.0,11.43,268.0,13.6,13.68,47.59359,-54.27349
2021-05-10 13:04:01+00:00,279.0,10.4,280.0,11.94,13.68,47.59359,-54.27349
2021-05-10 13:14:01+00:00,279.0,11.19,279.0,14.46,13.68,47.59359,-54.27349
2021-05-10 13:24:01+00:00,273.0,12.71,271.0,14.1,13.68,47.59359,-54.27349
2021-05-10 13:34:01+00:00,277.0,12.06,277.0,14.43,13.68,47.59359,-54.27349
2021-05-10 13:44:01+00:00,286.0,12.96,285.0,16.9,13.68,47.59359,-54.27349
2021-05-10 13:54:01+00:00,279.0,11.02,279.0,13.3,13.68,47.59359,-54.27349
2021-05-10 14:04:01+00:00,277.0,12.63,278.0,14.77,13.68,47.59359,-54.27349
2021-05-10 14:14:01+00:00,282.0,11.03,281.0,13.59,13.68,47.59359,-54.27349
2021-05-10 14:24:01+00:00,281.0,9.85,280.0,13.57,13.68,47.59359,-54.27349
2021-05-10 14:34:01+00:00,273.0,12.66,273.0,17.79,13.68,47.59359,-54.27349
2021-05-10 14:44:01+00:00,275.0,10.01,276.0,13.6,13.68,47.59359,-54.27349
2021-05-10 14:54:01+00:00,272.0,6.79,276.0,8.24,13.68,47.59359,-54.27349
2021-05-10 15:04:01+00:00,269.0,7.72,270.0,12.64,13.68,47.59359,-54.27349
2021-05-10 15:14:01+00:00,265.0,7.53,269.0,8.37,13.76,47.59359,-54.27349
2021-05-10 15:24:01+00:00,269.0,10.99,273.0,14.09,13.76,47.59359,-54.27349
2021-05-10 15:34:01+00:00,263.0,7.71,263.0,8.76,13.76,47.59359,-54.27349
2021-05-10 15:44:01+00:00,263.0,7.59,259.0,8.57,13.76,47.59359,-54.27349
2021-05-10 15:54:01+00:00,268.0,8.11,268.0,10.53,13.76,47.59359,-54.27349
2021-05-10 16:04:01+00:00,250.0,6.92,249.0,7.48,13.76,47.59359,-54.27349
2021-05-10 16:14:01+00:00,254.0,7.94,257.0,8.94,13.84,47.59359,-54.27349
2021-05-10 16:24:01+00:00,246.0,6.7,241.0,8.09,13.84,47.59359,-54.27349
2021-05-10 16:34:01+00:00,242.0,7.26,243.0,7.98,13.84,47.59359,-54.27349
2021-05-10 16:44:01+00:00,241.0,8.31,241.0,9.28,13.84,47.59359,-54.27349
2021-05-10 16:54:01+00:00,247.0,9.73,251.0,13.99,13.84,47.59359,-54.27349
2021-05-10 17:04:01+00:00,232.0,7.65,234.0,8.53,13.84,47.59359,-54.27349
2021-05-10 17:14:01+00:00,237.0,8.36,237.0,9.11,13.84,47.59359,-54.27349
2021-05-10 17:24:01+00:00,238.0,9.14,237.0,10.04,13.84,47.59359,-54.27349
2021-05-10 17:34:01+00:00,237.0,8.26,239.0,9.36,13.84,47.59359,-54.27349
2021-05-10 17:44:01+00:00,243.0,7.76,244.0,9.06,13.84,47.59359,-54.27349
2021-05-10 17:54:01+00:00,237.0,8.05,239.0,8.76,13.84,47.59359,-54.27349
2021-05-10 18:04:01+00:00,241.0,8.32,242.0,9.17,13.84,47.59359,-54.27349
2021-05-10 18:14:01+00:00,256.0,7.79,250.0,8.9,13.84,47.59359,-54.27349
2021-05-10 18:24:01+00:00,233.0,7.54,243.0,9.61,13.84,47.59359,-54.27349
2021-05-10 18:34:01+00:00,243.0,7.41,239.0,8.42,13.84,47.59359,-54.27349
2021-05-10 18:44:01+00:00,239.0,7.52,240.0,8.09,13.84,47.59359,-54.27349
2021-05-10 18:54:01+00:00,240.0,8.01,240.0,8.91,13.84,47.59359,-54.27349
2021-05-10 19:04:01+00:00,244.0,8.26,253.0,13.86,13.84,47.59359,-54.27349
2021-05-10 19:14:01+00:00,253.0,9.88,251.0,14.16,13.92,47.59359,-54.27349
2021-05-10 19:24:01+00:00,247.0,9.0,252.0,11.81,13.92,47.59359,-54.27349
2021-05-10 19:34:01+00:00,233.0,9.24,241.0,11.42,13.92,47.59359,-54.27349
2021-05-10 19:44:01+00:00,244.0,13.95,246.0,15.43,13.92,47.59359,-54.27349
2021-05-10 19:54:01+00:00,249.0,13.35,250.0,15.35,13.92,47.59359,-54.27349
2021-05-10 20:04:01+00:00,257.0,13.97,257.0,15.04,13.92,47.59359,-54.27349
2021-05-10 20:14:01+00:00,260.0,13.61,261.0,14.81,13.92,47.59359,-54.27349
2021-05-10 20:24:01+00:00,265.0,11.26,267.0,14.18,13.92,47.59359,-54.27349
2021-05-10 20:34:01+00:00,263.0,7.78,265.0,8.47,13.92,47.59359,-54.27349
2021-05-10 20:44:01+00:00,261.0,8.74,262.0,10.4,13.92,47.59359,-54.27349
2021-05-10 20:54:01+00:00,259.0,6.71,256.0,7.69,13.92,47.59359,-54.27349
2021-05-10 21:04:01+00:00,276.0,9.41,274.0,12.32,13.92,47.59359,-54.27349
2021-05-10 21:14:01+00:00,273.0,7.28,278.0,8.28,13.84,47.59359,-54.27349
2021-05-10 21:24:01+00:00,279.0,8.74,280.0,9.44,13.84,47.59359,-54.27349
2021-05-10 21:34:01+00:00,276.0,7.95,278.0,8.63,13.84,47.59359,-54.27349
2021-05-10 21:44:01+00:00,278.0,9.42,278.0,10.97,13.84,47.59359,-54.27349
2021-05-10 21:54:01+00:00,272.0,7.81,274.0,8.85,13.84,47.59359,-54.27349
2021-05-10 22:04:01+00:00,264.0,5.5,265.0,5.83,13.84,47.59359,-54.27349
2021-05-10 22:14:01+00:00,260.0,6.97,261.0,7.53,13.6,47.59359,-54.27349
2021-05-10 22:24:01+00:00,239.0,7.31,235.0,8.2,13.6,47.59359,-54.27349
2021-05-10 22:34:01+00:00,239.0,8.66,246.0,10.88,13.6,47.59359,-54.27349
2021-05-10 22:44:01+00:00,243.0,8.96,244.0,10.32,13.6,47.59359,-54.27349
2021-05-10 22:54:01+00:00,244.0,8.42,243.0,9.29,13.6,47.59359,-54.27349
2021-05-10 23:04:01+00:00,244.0,7.41,246.0,8.0,13.6,47.59359,-54.27349
2021-05-10 23:14:01+00:00,249.0,6.94,248.0,7.74,13.05,47.59359,-54.27349
2021-05-10 23:24:01+00:00,249.0,7.25,250.0,8.09,13.05,47.59359,-54.27349
2021-05-10 23:34:01+00:00,255.0,7.83,254.0,8.32,13.05,47.59359,-54.27349
2021-05-10 23:44:01+00:00,264.0,7.91,262.0,8.6,13.05,47.59359,-54.27349
2021-05-10 23:54:01+00:00,271.0,6.52,266.0,7.88,13.05,47.59359,-54.27349
